Seattle, WA
on Monday, January 21, 2013

Monday
Previous Day Next Day
Daily Summary
 ActualAverageRecord
Temperature
Mean Temperature °F 42°F  
Max Temperature 36°F 48°F 62°F (1981)
Min Temperature 29°F 37°F 13°F (1962)
Degree Days
Heating Degree Days 32 22  
Month to date heating degree days 594 490  
Since 1 July heating degree days 2345 2428  
Cooling Degree Days 0 0  
Month to date cooling degree days 0 0  
Year to date cooling degree days 0 0  
Moisture
Dew Point 32°F   
Average Humidity 95    
Maximum Humidity 100    
Minimum Humidity 89    
Precipitation
Precipitation 0.00 in 0.17 in 1.64 in (1954)
Month to date precipitation 2.71 3.95  
Year to date precipitation 2.71 3.95  
Snow
Snow 0.00 in in 1.50 in (1949)
Month to date snowfall T  
Since 1 July snowfall 0.6  
Snow Depth 0.00 in   
Wind
Wind Speed 3 mph   
Max Wind Speed 9 mph   
Max Gust Speed 10 mph   

Key: T is trace of precipitation, MM is missing value
Source: NWS Daily Summary
Time(PST)TemperatureDew PointHumidity Pressure Visibility Wind DirectionWind SpeedGust SpeedPrecipitationEvents Conditions
12:53 AM 35.1°F 34.0°F 96% 30.29 in 0.2 miles Calm Calm - N/A Fog Fog
1:53 AM 35.1°F 34.0°F 96% 30.29 in 0.2 miles NNE 3.5 mph - N/A Fog Fog
2:53 AM 35.1°F 34.0°F 96% 30.29 in 0.2 miles Calm Calm - N/A Fog Fog
3:53 AM 33.1°F 32.0°F 96% 30.28 in 0.2 miles ENE 3.5 mph - N/A Fog Fog
4:53 AM 32.0°F 32.0°F 100% 30.27 in 0.2 miles ESE 4.6 mph - N/A Fog Fog
5:53 AM 32.0°F 30.9°F 96% 30.26 in 0.2 miles Calm Calm - N/A Fog Fog
6:53 AM 32.0°F 32.0°F 100% 30.24 in 0.2 miles NNE 3.5 mph - N/A Fog Fog
7:53 AM 32.0°F 32.0°F 100% 30.23 in 0.2 miles Calm Calm - N/A Fog Fog
8:11 AM 32.0°F 30.2°F 93% 30.21 in 0.1 miles NE 3.5 mph - N/A Fog Fog
8:53 AM 32.0°F 30.9°F 96% 30.24 in 0.1 miles ENE 3.5 mph - N/A Fog Fog
9:53 AM 32.0°F 30.9°F 96% 30.25 in 0.1 miles ENE 4.6 mph - N/A Fog Fog
10:53 AM 33.1°F 33.1°F 100% 30.26 in 0.1 miles Calm Calm - N/A Fog Fog
11:53 AM 34.0°F 32.0°F 92% 30.25 in 0.1 miles SSE 3.5 mph - N/A Fog Fog
12:16 PM 33.8°F 33.8°F 100% 30.20 in 0.1 miles Calm Calm - N/A Fog Fog
12:53 PM 35.1°F 33.1°F 92% 30.23 in 0.1 miles NE 4.6 mph - N/A Fog Fog
1:08 PM 35.6°F 35.6°F 100% 30.19 in 0.1 miles Calm Calm - N/A Fog Fog
1:20 PM 35.6°F 33.8°F 93% 30.19 in 0.1 miles North 4.6 mph - N/A Fog Fog
1:53 PM 35.1°F 34.0°F 96% 30.21 in 0.1 miles North 4.6 mph - N/A Fog Fog
2:21 PM 35.6°F 33.8°F 93% 30.17 in 0.1 miles Calm Calm - N/A Fog Fog
2:53 PM 35.1°F 34.0°F 96% 30.19 in 0.1 miles Calm Calm - N/A Fog Fog
3:53 PM 34.0°F 33.1°F 96% 30.19 in 0.1 miles Calm Calm - N/A Fog Fog
4:53 PM 35.1°F 33.1°F 92% 30.19 in 0.1 miles Calm Calm - N/A Fog Fog
5:00 PM 35.6°F 33.8°F 93% 30.15 in 0.1 miles Calm Calm - N/A   Mist
5:39 PM 33.8°F 32.0°F 93% 30.15 in 0.2 miles ESE 6.9 mph - N/A   Overcast
5:53 PM 34.0°F 32.0°F 92% 30.18 in 0.2 miles ESE 4.6 mph - N/A   Overcast
6:11 PM 33.8°F 32.0°F 93% 30.14 in 0.2 miles Calm Calm - N/A Fog Fog
6:53 PM 33.1°F 32.0°F 96% 30.17 in 0.2 miles Calm Calm - N/A Fog Fog
7:53 PM 33.1°F 30.9°F 92% 30.18 in 0.2 miles SSE 4.6 mph - N/A Fog Fog
8:53 PM 32.0°F 30.9°F 96% 30.18 in 0.2 miles South 4.6 mph - N/A Fog Fog
9:53 PM 30.0°F 28.9°F 96% 30.18 in 0.2 miles ESE 6.9 mph - N/A Fog Light Freezing Fog
10:53 PM 28.9°F 28.0°F 96% 30.18 in 0.2 miles WSW 3.5 mph - N/A Fog Light Freezing Fog
11:53 PM 30.0°F 28.0°F 92% 30.17 in 0.2 miles Calm Calm - N/A Fog Light Freezing Fog
Moon Phase
Jan. 21 Jan. 26 Feb. 03 Feb. 10 Feb. 17
Sunrise:07:47 AM (PST) Moon Rise:12:36 PM (PST)1/21
Sunset:04:54 PM (PST) Moon Set:03:21 AM (PST)1/21

Copyright © 2014 The Weather Underground, Inc.